Weather Roundup
Issued by NWS Chicago, IL

Home | Current Version | Previous Version | Text Only | Print | Product List | Glossary On
Versions: 1 2 3 4 5 6 7 8 9 10 11 12 13 14 15 16 17 18 19 20 21 22 23 24 25 26 27 28 29 30 31 32 33 34 35 36 37 38 39 40 41 42 43 44 45 46 47 48 49 50
000
NZUS59 KLOT 281121
HRRLOT

CHICAGO AREA WEATHER ROUNDUP
NATIONAL WEATHER SERVICE CHICAGO/ROMEOVILLE IL
600 AM CDT TUE APR 28 2015

NOTE: "FAIR" INDICATES FEW OR NO CLOUDS BELOW 12,000 FEET WITH NO
SIGNIFICANT WEATHER AND/OR OBSTRUCTIONS TO VISIBILITY.

* THESE STATIONS ARE NOT UNDER NWS QUALITY CONTROL. THEY ALSO MAY NOT
  REPORT WEATHER SUCH AS PRECIPITATION OR FOG.

ILZ005-006-012>014-019>023-281200-
NORTHEAST ILLINOIS

CITY           SKY/WX    TMP DP  RH WIND       PRES   REMARKS
OHARE          PTCLDY    37  33  85 CALM      30.15R
MIDWAY         PTCLDY    39  33  79 W3        30.16R
AURORA         CLEAR     31  28  89 W5        30.17R WCI  26
LANSING*       CLEAR     33  32  93 CALM      30.17R
JOLIET*        CLEAR     35  34  94 CALM      30.17R
WAUKEGAN       CLEAR     31  30  96 CALM      30.15R
DUPAGE AIRPORT   N/A     34  31  88 W6        30.15R WCI  29
WHEELING       CLEAR     35  31  85 CALM      30.17R
KANKAKEE*      CLEAR     33  33  96 CALM      30.17S FOG
MORRIS*        CLEAR     35  32  90 CALM      30.13F
LEWIS AIRPORT* CLEAR     37  32  85 CALM      30.16R
NORTHERLY IS     N/A     42  34  73 CALM        N/A
$$

WIZ051-052-058>065-066-070>072-281200-
SOUTHEAST WISCONSIN

CITY           SKY/WX    TMP DP  RH WIND       PRES   REMARKS
MILWAUKEE      CLEAR     39  31  72 NW3       30.16R
KENOSHA*       CLEAR     38  32  79 N5        30.15R
RACINE*        CLEAR     40  33  76 N9        30.16S
BURLINGTON     CLEAR     30  28  92 CALM      30.16R
WAUKESHA       CLEAR     36  30  80 CALM      30.16S
WEST BEND      CLEAR     32  32 100 W3        30.16S
$$

INZ001>003-010>013-019-020-281200-
NORTHWEST INDIANA

CITY           SKY/WX    TMP DP  RH WIND       PRES   REMARKS
GARY*          PTCLDY    34  32  93 CALM      30.16R
MICHIGAN CITY* NOT AVBL
RENSSELAER*    NOT AVBL
VALPARAISO     CLEAR     33  32  96 CALM      30.16R
$$

LMZ740>746-281200-
SOUTHERN LAKE MICHIGAN

STATION/POSITION TIME  SKY/WX   TEMP WIND        PRES    VSBY
                                AIR  DIR/SP/G
                 (UTC)          (F)  (DEG/KT/KT) (MB)    (MI)
HARRISON CRIB    1100            41  340/  6/  6   N/A
BURNHAM HARBOR   1100            43  340/  3/  3   N/A
CALUMET HARBOR   1000            40  160/  1/  3   N/A
BURNS HARBOR     1000            42  320/  5/  7 1021.3R
MICHIGAN CITY    1100            40  260/  5/  6   N/A
$$

ABBREVIATIONS USED IN REMARKS
   TC - TEMPERATURE IN CELSIUS
  WCI - WIND CHILL INDEX
   HX - HEAT INDEX
  VSB - VISIBILITY
$$


USA.gov is the U.S. government's official web portal to all federal, state and local government web resources and services.